Time,TemperatureF,DewpointF,PressureIn,WindDirection,WindDirectionDegrees,WindSpeedMPH,WindSpeedGustMPH,Humidity,HourlyPrecipIn,Conditions,Clouds,dailyrainin,SoftwareType,DateUTC
2013-02-09 00:02:00,40.8,36.6,30.35,SE,134,0.0,0.0,85,0.00,,,0.00,Wunderground v.1.15,2013-02-09 08:02:00,
2013-02-09 00:08:00,40.8,36.3,30.35,SE,134,0.0,0.0,84,0.00,,,0.00,Wunderground v.1.15,2013-02-09 08:08:00,
2013-02-09 00:13:00,40.8,36.3,30.34,SE,134,0.0,0.0,84,0.00,,,0.00,Wunderground v.1.15,2013-02-09 08:13:00,
2013-02-09 00:19:00,40.8,36.6,30.34,SE,134,0.0,0.0,85,0.00,,,0.00,Wunderground v.1.15,2013-02-09 08:19:00,
2013-02-09 00:24:00,40.8,36.6,30.35,SE,134,0.0,0.0,85,0.00,,,0.00,Wunderground v.1.15,2013-02-09 08:24:00,
2013-02-09 00:30:00,40.9,36.7,30.34,SE,134,0.0,0.0,85,0.00,,,0.00,Wunderground v.1.15,2013-02-09 08:30:00,
2013-02-09 00:35:00,40.8,36.6,30.34,SE,134,0.0,0.0,85,0.00,,,0.00,Wunderground v.1.15,2013-02-09 08:35:00,
2013-02-09 00:41:00,40.8,36.6,30.34,SE,134,0.0,0.0,85,0.00,,,0.00,Wunderground v.1.15,2013-02-09 08:41:00,
2013-02-09 00:46:00,40.9,36.7,30.34,SE,134,0.0,0.0,85,0.00,,,0.00,Wunderground v.1.15,2013-02-09 08:46:00,
2013-02-09 00:52:00,40.9,37.0,30.34,SE,134,0.0,0.0,86,0.00,,,0.00,Wunderground v.1.15,2013-02-09 08:52:00,
2013-02-09 00:57:00,40.9,37.0,30.35,SE,134,0.0,0.0,86,0.00,,,0.00,Wunderground v.1.15,2013-02-09 08:57:00,
2013-02-09 01:02:00,41.0,37.1,30.34,SE,134,0.0,0.0,86,0.00,,,0.00,Wunderground v.1.15,2013-02-09 09:02:00,
2013-02-09 01:08:00,40.9,37.0,30.34,SE,134,0.0,0.0,86,0.00,,,0.00,Wunderground v.1.15,2013-02-09 09:08:00,
2013-02-09 01:14:00,40.9,37.0,30.34,SE,134,0.0,0.0,86,0.00,,,0.00,Wunderground v.1.15,2013-02-09 09:14:00,
2013-02-09 01:19:00,40.9,37.0,30.34,SE,134,0.0,0.0,86,0.00,,,0.00,Wunderground v.1.15,2013-02-09 09:19:00,
2013-02-09 01:24:00,40.8,36.9,30.34,SE,134,0.0,0.0,86,0.00,,,0.00,Wunderground v.1.15,2013-02-09 09:24:00,
2013-02-09 01:30:00,40.8,36.9,30.34,SE,134,0.0,0.0,86,0.00,,,0.00,Wunderground v.1.15,2013-02-09 09:30:00,
2013-02-09 01:35:00,40.7,36.8,30.34,SE,134,0.0,0.0,86,0.00,,,0.00,Wunderground v.1.15,2013-02-09 09:35:00,
2013-02-09 01:41:00,40.7,36.8,30.34,SE,134,0.0,0.0,86,0.00,,,0.00,Wunderground v.1.15,2013-02-09 09:41:00,
2013-02-09 01:47:00,40.8,36.9,30.34,SE,134,0.0,0.0,86,0.00,,,0.00,Wunderground v.1.15,2013-02-09 09:47:00,
2013-02-09 01:52:00,40.7,36.8,30.34,SE,134,0.0,0.0,86,0.00,,,0.00,Wunderground v.1.15,2013-02-09 09:52:00,
2013-02-09 01:57:00,40.7,36.8,30.34,SE,134,0.0,0.0,86,0.00,,,0.00,Wunderground v.1.15,2013-02-09 09:57:00,
2013-02-09 02:02:00,40.7,36.8,30.34,SE,134,0.0,0.0,86,0.00,,,0.00,Wunderground v.1.15,2013-02-09 10:02:00,
2013-02-09 02:07:00,40.7,36.8,30.34,SE,134,0.0,0.0,86,0.00,,,0.00,Wunderground v.1.15,2013-02-09 10:07:00,
2013-02-09 02:13:00,40.7,36.8,30.34,SE,134,0.0,0.0,86,0.00,,,0.00,Wunderground v.1.15,2013-02-09 10:13:00,
2013-02-09 02:18:00,40.7,37.1,30.34,SE,134,0.0,0.0,87,0.00,,,0.00,Wunderground v.1.15,2013-02-09 10:18:00,
2013-02-09 02:23:00,40.7,37.1,30.34,SE,134,0.0,0.0,87,0.00,,,0.00,Wunderground v.1.15,2013-02-09 10:23:00,
2013-02-09 02:28:00,40.7,37.1,30.34,SE,134,0.0,0.0,87,0.00,,,0.00,Wunderground v.1.15,2013-02-09 10:28:00,
2013-02-09 02:33:00,40.8,37.2,30.34,SE,134,0.0,0.0,87,0.00,,,0.00,Wunderground v.1.15,2013-02-09 10:33:00,
2013-02-09 02:38:00,40.7,37.1,30.34,SE,134,0.0,0.0,87,0.00,,,0.00,Wunderground v.1.15,2013-02-09 10:38:00,
2013-02-09 02:43:00,40.8,37.2,30.34,SE,134,0.0,0.0,87,0.00,,,0.00,Wunderground v.1.15,2013-02-09 10:43:00,
2013-02-09 02:48:00,40.8,37.2,30.34,SE,134,0.0,0.0,87,0.00,,,0.00,Wunderground v.1.15,2013-02-09 10:48:00,
2013-02-09 02:53:00,40.8,37.5,30.34,SE,134,0.0,0.0,88,0.00,,,0.00,Wunderground v.1.15,2013-02-09 10:53:00,
2013-02-09 02:58:00,40.8,37.5,30.34,SE,134,2.0,2.0,88,0.00,,,0.00,Wunderground v.1.15,2013-02-09 10:58:00,
2013-02-09 03:03:00,40.7,37.4,30.33,SE,134,0.0,2.0,88,0.00,,,0.00,Wunderground v.1.15,2013-02-09 11:03:00,
2013-02-09 03:08:00,40.6,37.3,30.34,SE,134,1.0,2.0,88,0.00,,,0.00,Wunderground v.1.15,2013-02-09 11:08:00,
2013-02-09 03:13:00,40.5,37.2,30.34,SE,134,1.0,2.0,88,0.00,,,0.00,Wunderground v.1.15,2013-02-09 11:13:00,
2013-02-09 03:18:00,40.4,37.1,30.33,SE,134,0.0,3.0,88,0.00,,,0.00,Wunderground v.1.15,2013-02-09 11:18:00,
2013-02-09 03:23:00,40.3,37.0,30.33,SE,134,1.0,2.0,88,0.00,,,0.00,Wunderground v.1.15,2013-02-09 11:23:00,
2013-02-09 03:28:00,40.2,36.9,30.33,SE,134,2.0,3.0,88,0.00,,,0.00,Wunderground v.1.15,2013-02-09 11:28:00,
2013-02-09 03:33:00,40.1,37.1,30.33,SE,134,0.0,2.0,89,0.00,,,0.00,Wunderground v.1.15,2013-02-09 11:33:00,
2013-02-09 03:38:00,40.0,37.0,30.33,SE,134,0.0,2.0,89,0.00,,,0.00,Wunderground v.1.15,2013-02-09 11:38:00,
2013-02-09 03:43:00,40.0,37.0,30.33,SE,134,0.0,1.0,89,0.00,,,0.00,Wunderground v.1.15,2013-02-09 11:43:00,
2013-02-09 03:48:00,40.0,37.0,30.33,SE,134,0.0,1.0,89,0.00,,,0.00,Wunderground v.1.15,2013-02-09 11:48:00,
2013-02-09 03:53:00,40.0,37.3,30.33,SE,134,0.0,0.0,90,0.00,,,0.00,Wunderground v.1.15,2013-02-09 11:53:00,
2013-02-09 03:58:00,39.9,37.2,30.34,SE,134,0.0,0.0,90,0.00,,,0.00,Wunderground v.1.15,2013-02-09 11:58:00,
2013-02-09 04:03:00,39.9,37.2,30.33,SE,134,0.0,0.0,90,0.00,,,0.00,Wunderground v.1.15,2013-02-09 12:03:00,
2013-02-09 04:08:00,39.9,37.2,30.34,SE,134,0.0,0.0,90,0.00,,,0.00,Wunderground v.1.15,2013-02-09 12:08:00,
2013-02-09 04:13:00,39.8,37.1,30.33,SE,134,0.0,0.0,90,0.00,,,0.00,Wunderground v.1.15,2013-02-09 12:13:00,
2013-02-09 04:18:00,39.9,37.2,30.33,SE,134,0.0,0.0,90,0.00,,,0.00,Wunderground v.1.15,2013-02-09 12:18:00,
2013-02-09 04:23:00,39.8,37.1,30.33,SE,134,0.0,0.0,90,0.00,,,0.00,Wunderground v.1.15,2013-02-09 12:23:00,
2013-02-09 04:28:00,39.9,37.2,30.33,SE,134,0.0,0.0,90,0.00,,,0.00,Wunderground v.1.15,2013-02-09 12:28:00,
2013-02-09 04:33:00,40.0,37.6,30.33,SE,134,0.0,2.0,91,0.00,,,0.00,Wunderground v.1.15,2013-02-09 12:33:00,
2013-02-09 04:38:00,40.0,37.6,30.33,SE,134,0.0,2.0,91,0.00,,,0.00,Wunderground v.1.15,2013-02-09 12:38:00,
2013-02-09 04:43:00,40.0,37.6,30.33,SE,134,0.0,0.0,91,0.00,,,0.00,Wunderground v.1.15,2013-02-09 12:43:00,
2013-02-09 04:48:00,40.0,37.6,30.33,SE,134,0.0,0.0,91,0.00,,,0.00,Wunderground v.1.15,2013-02-09 12:48:00,
2013-02-09 04:53:00,39.9,37.5,30.34,SE,134,1.0,3.0,91,0.00,,,0.00,Wunderground v.1.15,2013-02-09 12:53:00,
2013-02-09 04:58:00,39.9,37.5,30.33,SE,134,0.0,3.0,91,0.00,,,0.00,Wunderground v.1.15,2013-02-09 12:58:00,
2013-02-09 05:03:00,39.8,37.4,30.33,SE,134,0.0,0.0,91,0.00,,,0.00,Wunderground v.1.15,2013-02-09 13:03:00,
2013-02-09 05:08:00,39.8,37.4,30.33,SE,134,1.0,1.0,91,0.00,,,0.00,Wunderground v.1.15,2013-02-09 13:08:00,
2013-02-09 05:13:00,39.8,37.4,30.33,SE,134,0.0,0.0,91,0.00,,,0.00,Wunderground v.1.15,2013-02-09 13:13:00,
2013-02-09 05:18:00,39.7,37.6,30.33,SE,134,0.0,0.0,92,0.00,,,0.00,Wunderground v.1.15,2013-02-09 13:18:00,
2013-02-09 05:23:00,39.7,37.6,30.33,SE,134,0.0,0.0,92,0.00,,,0.00,Wunderground v.1.15,2013-02-09 13:23:00,
2013-02-09 05:28:00,39.7,37.6,30.33,SE,134,0.0,0.0,92,0.00,,,0.00,Wunderground v.1.15,2013-02-09 13:28:00,
2013-02-09 05:34:00,39.7,37.6,30.34,SE,134,0.0,0.0,92,0.00,,,0.00,Wunderground v.1.15,2013-02-09 13:34:00,
2013-02-09 05:39:00,39.7,37.6,30.33,SE,134,0.0,0.0,92,0.00,,,0.00,Wunderground v.1.15,2013-02-09 13:39:00,
2013-02-09 05:44:00,39.7,37.6,30.33,SE,134,0.0,2.0,92,0.00,,,0.00,Wunderground v.1.15,2013-02-09 13:44:00,
2013-02-09 05:49:00,39.7,37.6,30.33,SE,134,0.0,2.0,92,0.00,,,0.00,Wunderground v.1.15,2013-02-09 13:49:00,
2013-02-09 05:54:00,39.7,37.6,30.33,SE,134,0.0,0.0,92,0.00,,,0.00,Wunderground v.1.15,2013-02-09 13:54:00,
2013-02-09 05:59:00,39.7,37.6,30.33,SE,134,0.0,0.0,92,0.00,,,0.00,Wunderground v.1.15,2013-02-09 13:59:00,
2013-02-09 06:04:00,39.7,37.6,30.34,SE,134,0.0,0.0,92,0.00,,,0.00,Wunderground v.1.15,2013-02-09 14:04:00,
2013-02-09 06:09:00,39.7,37.6,30.33,SE,134,0.0,0.0,92,0.00,,,0.00,Wunderground v.1.15,2013-02-09 14:09:00,
2013-02-09 06:14:00,39.7,37.8,30.34,SE,134,0.0,0.0,93,0.00,,,0.00,Wunderground v.1.15,2013-02-09 14:14:00,
2013-02-09 06:19:00,39.7,37.8,30.34,SE,134,0.0,0.0,93,0.00,,,0.00,Wunderground v.1.15,2013-02-09 14:19:00,
2013-02-09 06:24:00,39.7,37.8,30.34,SE,134,0.0,1.0,93,0.00,,,0.00,Wunderground v.1.15,2013-02-09 14:24:00,
2013-02-09 06:29:00,39.7,37.8,30.34,SE,134,0.0,1.0,93,0.00,,,0.00,Wunderground v.1.15,2013-02-09 14:29:00,
2013-02-09 06:34:00,39.7,37.8,30.34,SE,134,0.0,1.0,93,0.00,,,0.00,Wunderground v.1.15,2013-02-09 14:34:00,
2013-02-09 06:39:00,39.7,37.8,30.34,SE,134,0.0,2.0,93,0.00,,,0.00,Wunderground v.1.15,2013-02-09 14:39:00,
2013-02-09 06:44:00,39.7,37.8,30.34,SE,134,0.0,2.0,93,0.00,,,0.00,Wunderground v.1.15,2013-02-09 14:44:00,
2013-02-09 06:49:00,39.7,37.8,30.34,SE,134,0.0,2.0,93,0.00,,,0.00,Wunderground v.1.15,2013-02-09 14:49:00,
2013-02-09 06:54:00,39.6,37.7,30.34,SE,134,0.0,2.0,93,0.00,,,0.00,Wunderground v.1.15,2013-02-09 14:54:00,
2013-02-09 06:59:00,39.6,37.7,30.34,SE,134,0.0,2.0,93,0.00,,,0.00,Wunderground v.1.15,2013-02-09 14:59:00,
2013-02-09 07:04:00,39.6,37.7,30.34,SE,134,0.0,1.0,93,0.00,,,0.00,Wunderground v.1.15,2013-02-09 15:04:00,
2013-02-09 07:09:00,39.6,37.7,30.34,SE,134,2.0,2.0,93,0.00,,,0.00,Wunderground v.1.15,2013-02-09 15:09:00,
2013-02-09 07:14:00,39.7,37.8,30.33,SE,134,2.0,5.0,93,0.00,,,0.00,Wunderground v.1.15,2013-02-09 15:14:00,
2013-02-09 07:19:00,39.6,37.7,30.34,SE,134,2.0,5.0,93,0.00,,,0.00,Wunderground v.1.15,2013-02-09 15:19:00,
2013-02-09 07:24:00,39.6,37.7,30.33,SE,134,0.0,3.0,93,0.00,,,0.00,Wunderground v.1.15,2013-02-09 15:24:00,
2013-02-09 07:29:00,39.7,37.8,30.34,SE,134,1.0,3.0,93,0.00,,,0.00,Wunderground v.1.15,2013-02-09 15:29:00,
2013-02-09 07:34:00,39.7,37.8,30.34,SE,134,0.0,1.0,93,0.00,,,0.00,Wunderground v.1.15,2013-02-09 15:34:00,
2013-02-09 07:39:00,39.7,37.8,30.34,SE,134,0.0,1.0,93,0.00,,,0.00,Wunderground v.1.15,2013-02-09 15:39:00,
2013-02-09 07:44:00,39.8,37.9,30.33,SE,134,0.0,0.0,93,0.00,,,0.00,Wunderground v.1.15,2013-02-09 15:44:00,
2013-02-09 07:49:00,39.8,37.9,30.33,SE,134,0.0,0.0,93,0.00,,,0.00,Wunderground v.1.15,2013-02-09 15:49:00,
2013-02-09 07:54:00,39.8,37.9,30.33,SE,134,0.0,0.0,93,0.00,,,0.00,Wunderground v.1.15,2013-02-09 15:54:00,
2013-02-09 08:00:00,39.8,37.9,30.33,SE,134,0.0,0.0,93,0.00,,,0.00,Wunderground v.1.15,2013-02-09 16:00:00,
2013-02-09 08:05:00,39.8,37.9,30.33,SE,134,0.0,0.0,93,0.00,,,0.00,Wunderground v.1.15,2013-02-09 16:05:00,
2013-02-09 08:10:00,39.8,37.9,30.34,SE,134,0.0,0.0,93,0.00,,,0.00,Wunderground v.1.15,2013-02-09 16:10:00,
2013-02-09 08:15:00,39.8,37.9,30.33,SE,134,0.0,0.0,93,0.00,,,0.00,Wunderground v.1.15,2013-02-09 16:15:00,
2013-02-09 08:20:00,39.8,37.9,30.34,SE,134,0.0,0.0,93,0.00,,,0.00,Wunderground v.1.15,2013-02-09 16:20:00,
2013-02-09 08:25:00,39.8,37.9,30.34,SE,134,0.0,3.0,93,0.00,,,0.00,Wunderground v.1.15,2013-02-09 16:25:00,
2013-02-09 08:30:00,39.8,37.9,30.34,SE,134,0.0,0.0,93,0.00,,,0.00,Wunderground v.1.15,2013-02-09 16:30:00,
2013-02-09 08:35:00,39.9,38.0,30.33,SE,134,1.0,1.0,93,0.00,,,0.00,Wunderground v.1.15,2013-02-09 16:35:00,
2013-02-09 08:40:00,39.8,37.9,30.33,SE,134,0.0,0.0,93,0.00,,,0.00,Wunderground v.1.15,2013-02-09 16:40:00,
2013-02-09 08:45:00,39.9,38.0,30.33,SE,134,0.0,2.0,93,0.00,,,0.00,Wunderground v.1.15,2013-02-09 16:45:00,
2013-02-09 08:50:00,40.0,38.1,30.34,SE,134,0.0,0.0,93,0.00,,,0.00,Wunderground v.1.15,2013-02-09 16:50:00,
2013-02-09 08:55:00,40.1,38.2,30.34,SE,134,0.0,0.0,93,0.00,,,0.00,Wunderground v.1.15,2013-02-09 16:55:00,
2013-02-09 09:00:00,40.1,38.0,30.34,SE,134,0.0,0.0,92,0.00,,,0.00,Wunderground v.1.15,2013-02-09 17:00:00,
2013-02-09 09:05:00,40.2,38.1,30.34,SE,134,0.0,0.0,92,0.00,,,0.00,Wunderground v.1.15,2013-02-09 17:05:00,
2013-02-09 09:10:00,40.3,38.2,30.34,SE,134,0.0,0.0,92,0.00,,,0.00,Wunderground v.1.15,2013-02-09 17:10:00,
2013-02-09 09:15:00,40.4,38.5,30.34,SE,134,0.0,0.0,93,0.00,,,0.00,Wunderground v.1.15,2013-02-09 17:15:00,
2013-02-09 09:20:00,40.5,38.4,30.35,SE,134,0.0,0.0,92,0.00,,,0.00,Wunderground v.1.15,2013-02-09 17:20:00,
2013-02-09 09:25:00,40.6,38.5,30.34,SE,134,0.0,0.0,92,0.00,,,0.00,Wunderground v.1.15,2013-02-09 17:25:00,
2013-02-09 09:30:00,40.7,38.6,30.35,SE,136,0.0,0.0,92,0.00,,,0.00,Wunderground v.1.15,2013-02-09 17:30:00,
2013-02-09 09:35:00,40.8,38.7,30.35,SE,136,0.0,0.0,92,0.00,,,0.00,Wunderground v.1.15,2013-02-09 17:35:00,
2013-02-09 09:40:00,41.0,38.9,30.34,SE,136,0.0,0.0,92,0.00,,,0.00,Wunderground v.1.15,2013-02-09 17:40:00,
2013-02-09 09:45:00,41.1,39.0,30.34,SE,136,0.0,0.0,92,0.00,,,0.00,Wunderground v.1.15,2013-02-09 17:45:00,
2013-02-09 09:50:00,41.2,38.8,30.34,SE,139,0.0,4.0,91,0.00,,,0.00,Wunderground v.1.15,2013-02-09 17:50:00,
2013-02-09 09:55:00,41.2,38.8,30.34,SE,140,0.0,4.0,91,0.00,,,0.00,Wunderground v.1.15,2013-02-09 17:55:00,
2013-02-09 10:00:00,41.3,38.6,30.34,SE,141,0.0,2.0,90,0.00,,,0.00,Wunderground v.1.15,2013-02-09 18:00:00,
2013-02-09 10:05:00,41.4,38.7,30.34,SE,142,0.0,2.0,90,0.00,,,0.00,Wunderground v.1.15,2013-02-09 18:05:00,
2013-02-09 10:10:00,41.4,38.7,30.35,SSE,152,3.0,4.0,90,0.00,,,0.00,Wunderground v.1.15,2013-02-09 18:10:00,
2013-02-09 10:16:00,41.4,38.7,30.35,SSE,157,4.0,4.0,90,0.00,,,0.00,Wunderground v.1.15,2013-02-09 18:16:00,
2013-02-09 10:21:00,41.3,38.3,30.35,SSE,157,0.0,1.0,89,0.00,,,0.00,Wunderground v.1.15,2013-02-09 18:21:00,
2013-02-09 10:26:00,41.4,38.4,30.35,SSE,157,0.0,2.0,89,0.00,,,0.00,Wunderground v.1.15,2013-02-09 18:26:00,
2013-02-09 10:31:00,41.5,38.5,30.35,SSE,157,0.0,0.0,89,0.00,,,0.00,Wunderground v.1.15,2013-02-09 18:31:00,
2013-02-09 10:36:00,41.7,38.7,30.35,SSE,157,0.0,0.0,89,0.00,,,0.00,Wunderground v.1.15,2013-02-09 18:36:00,
2013-02-09 10:41:00,41.7,38.7,30.36,SSE,157,0.0,0.0,89,0.00,,,0.00,Wunderground v.1.15,2013-02-09 18:41:00,
2013-02-09 10:46:00,41.8,38.8,30.36,SSE,157,0.0,0.0,89,0.00,,,0.00,Wunderground v.1.15,2013-02-09 18:46:00,
2013-02-09 10:51:00,42.0,39.0,30.35,SSE,157,0.0,0.0,89,0.00,,,0.00,Wunderground v.1.15,2013-02-09 18:51:00,
2013-02-09 10:56:00,42.3,39.3,30.35,SSE,157,0.0,0.0,89,0.00,,,0.00,Wunderground v.1.15,2013-02-09 18:56:00,
2013-02-09 11:01:00,42.2,39.2,30.35,SSE,157,2.0,2.0,89,0.00,,,0.00,Wunderground v.1.15,2013-02-09 19:01:00,
2013-02-09 11:06:00,42.2,39.5,30.35,SSE,157,0.0,2.0,90,0.00,,,0.00,Wunderground v.1.15,2013-02-09 19:06:00,
2013-02-09 11:11:00,42.2,39.2,30.35,SSE,157,0.0,0.0,89,0.00,,,0.00,Wunderground v.1.15,2013-02-09 19:11:00,
2013-02-09 11:16:00,42.1,39.1,30.35,SSE,157,0.0,0.0,89,0.00,,,0.00,Wunderground v.1.15,2013-02-09 19:16:00,
2013-02-09 11:21:00,41.9,38.6,30.35,SSE,157,0.0,0.0,88,0.00,,,0.00,Wunderground v.1.15,2013-02-09 19:21:00,
2013-02-09 11:26:00,41.8,38.8,30.35,SSE,157,0.0,0.0,89,0.00,,,0.00,Wunderground v.1.15,2013-02-09 19:26:00,
2013-02-09 11:31:00,41.8,38.8,30.35,SSE,157,0.0,0.0,89,0.00,,,0.00,Wunderground v.1.15,2013-02-09 19:31:00,
2013-02-09 11:36:00,41.9,38.9,30.35,SSE,157,0.0,1.0,89,0.00,,,0.00,Wunderground v.1.15,2013-02-09 19:36:00,
2013-02-09 11:41:00,42.0,39.0,30.35,SSE,157,0.0,0.0,89,0.00,,,0.00,Wunderground v.1.15,2013-02-09 19:41:00,
2013-02-09 11:46:00,42.2,38.9,30.35,SSE,157,0.0,0.0,88,0.00,,,0.00,Wunderground v.1.15,2013-02-09 19:46:00,
2013-02-09 11:51:00,42.5,39.2,30.35,SSE,157,0.0,0.0,88,0.00,,,0.00,Wunderground v.1.15,2013-02-09 19:51:00,
2013-02-09 11:56:00,42.7,39.1,30.35,SSE,157,0.0,0.0,87,0.00,,,0.00,Wunderground v.1.15,2013-02-09 19:56:00,
2013-02-09 12:01:00,42.8,39.2,30.35,SSE,157,0.0,0.0,87,0.00,,,0.00,Wunderground v.1.15,2013-02-09 20:01:00,
2013-02-09 12:06:00,42.7,39.1,30.34,SSE,157,0.0,0.0,87,0.00,,,0.00,Wunderground v.1.15,2013-02-09 20:06:00,
2013-02-09 12:11:00,42.7,39.4,30.34,SSE,157,0.0,1.0,88,0.00,,,0.00,Wunderground v.1.15,2013-02-09 20:11:00,
2013-02-09 12:16:00,42.6,39.0,30.34,SSE,157,0.0,1.0,87,0.00,,,0.00,Wunderground v.1.15,2013-02-09 20:16:00,
2013-02-09 12:21:00,42.5,39.2,30.34,SSE,157,0.0,0.0,88,0.00,,,0.00,Wunderground v.1.15,2013-02-09 20:21:00,
2013-02-09 12:26:00,42.4,39.1,30.34,SSE,157,0.0,0.0,88,0.00,,,0.00,Wunderground v.1.15,2013-02-09 20:26:00,
2013-02-09 12:31:00,42.3,39.0,30.34,SSE,157,0.0,0.0,88,0.00,,,0.00,Wunderground v.1.15,2013-02-09 20:31:00,
2013-02-09 12:36:00,42.5,39.2,30.34,SSE,157,0.0,0.0,88,0.00,,,0.00,Wunderground v.1.15,2013-02-09 20:36:00,
2013-02-09 12:41:00,42.5,39.2,30.34,SSE,157,0.0,0.0,88,0.00,,,0.00,Wunderground v.1.15,2013-02-09 20:41:00,
2013-02-09 12:46:00,42.5,39.2,30.34,SSE,157,0.0,1.0,88,0.00,,,0.00,Wunderground v.1.15,2013-02-09 20:46:00,
2013-02-09 12:51:00,42.5,38.9,30.34,SSE,157,0.0,1.0,87,0.00,,,0.00,Wunderground v.1.15,2013-02-09 20:51:00,
2013-02-09 12:56:00,42.5,38.9,30.34,SSE,157,0.0,2.0,87,0.00,,,0.00,Wunderground v.1.15,2013-02-09 20:56:00,
2013-02-09 13:02:00,42.6,39.3,30.34,SSE,157,0.0,0.0,88,0.00,,,0.00,Wunderground v.1.15,2013-02-09 21:02:00,
2013-02-09 13:07:00,42.7,39.1,30.34,SSE,157,0.0,0.0,87,0.00,,,0.00,Wunderground v.1.15,2013-02-09 21:07:00,
2013-02-09 13:12:00,42.7,39.1,30.34,SSE,157,0.0,0.0,87,0.00,,,0.00,Wunderground v.1.15,2013-02-09 21:12:00,
2013-02-09 13:17:00,42.8,39.2,30.34,SSE,157,0.0,0.0,87,0.00,,,0.00,Wunderground v.1.15,2013-02-09 21:17:00,
2013-02-09 13:22:00,42.8,38.9,30.34,SSE,157,0.0,1.0,86,0.00,,,0.00,Wunderground v.1.15,2013-02-09 21:22:00,
2013-02-09 13:27:00,42.8,38.9,30.34,SSE,157,0.0,1.0,86,0.00,,,0.00,Wunderground v.1.15,2013-02-09 21:27:00,
2013-02-09 13:32:00,43.0,38.8,30.33,SSE,157,0.0,0.0,85,0.00,,,0.00,Wunderground v.1.15,2013-02-09 21:32:00,
2013-02-09 13:37:00,43.1,38.9,30.34,SSE,157,0.0,1.0,85,0.00,,,0.00,Wunderground v.1.15,2013-02-09 21:37:00,
2013-02-09 13:42:00,43.2,39.0,30.34,SSE,157,0.0,0.0,85,0.00,,,0.00,Wunderground v.1.15,2013-02-09 21:42:00,
2013-02-09 13:47:00,43.3,38.8,30.34,SSE,157,0.0,0.0,84,0.00,,,0.00,Wunderground v.1.15,2013-02-09 21:47:00,
2013-02-09 13:52:00,43.4,38.9,30.33,SSE,157,0.0,0.0,84,0.00,,,0.00,Wunderground v.1.15,2013-02-09 21:52:00,
2013-02-09 13:57:00,43.3,38.8,30.33,SSE,157,0.0,0.0,84,0.00,,,0.00,Wunderground v.1.15,2013-02-09 21:57:00,
2013-02-09 14:02:00,43.3,38.8,30.33,SSE,157,0.0,0.0,84,0.00,,,0.00,Wunderground v.1.15,2013-02-09 22:02:00,
2013-02-09 14:07:00,43.4,38.6,30.33,SSE,157,0.0,0.0,83,0.00,,,0.00,Wunderground v.1.15,2013-02-09 22:07:00,
2013-02-09 14:12:00,43.4,38.6,30.33,SSE,157,0.0,0.0,83,0.00,,,0.00,Wunderground v.1.15,2013-02-09 22:12:00,
2013-02-09 14:17:00,43.5,38.7,30.33,SSE,157,0.0,0.0,83,0.00,,,0.00,Wunderground v.1.15,2013-02-09 22:17:00,
2013-02-09 14:22:00,43.5,38.4,30.33,SSE,157,0.0,1.0,82,0.00,,,0.00,Wunderground v.1.15,2013-02-09 22:22:00,
2013-02-09 14:27:00,43.5,38.4,30.33,SSE,157,0.0,2.0,82,0.00,,,0.00,Wunderground v.1.15,2013-02-09 22:27:00,
2013-02-09 14:32:00,43.5,38.4,30.33,SSE,157,0.0,1.0,82,0.00,,,0.00,Wunderground v.1.15,2013-02-09 22:32:00,
2013-02-09 14:37:00,43.6,38.5,30.33,SSE,157,0.0,1.0,82,0.00,,,0.00,Wunderground v.1.15,2013-02-09 22:37:00,
2013-02-09 14:42:00,43.6,38.5,30.33,SSE,157,0.0,1.0,82,0.00,,,0.00,Wunderground v.1.15,2013-02-09 22:42:00,
2013-02-09 14:47:00,43.5,38.4,30.33,SSE,157,0.0,2.0,82,0.00,,,0.00,Wunderground v.1.15,2013-02-09 22:47:00,
2013-02-09 14:52:00,43.5,38.4,30.33,SSE,157,0.0,0.0,82,0.00,,,0.00,Wunderground v.1.15,2013-02-09 22:52:00,
2013-02-09 14:57:00,43.5,38.4,30.33,SSE,157,0.0,1.0,82,0.00,,,0.00,Wunderground v.1.15,2013-02-09 22:57:00,
2013-02-09 15:02:00,43.5,38.4,30.33,SSE,157,0.0,0.0,82,0.00,,,0.00,Wunderground v.1.15,2013-02-09 23:02:00,
2013-02-09 15:07:00,43.6,38.5,30.34,SSE,157,0.0,0.0,82,0.00,,,0.00,Wunderground v.1.15,2013-02-09 23:07:00,
2013-02-09 15:12:00,43.8,38.3,30.33,SSE,157,0.0,0.0,81,0.00,,,0.00,Wunderground v.1.15,2013-02-09 23:12:00,
2013-02-09 15:17:00,43.9,38.4,30.34,SSE,157,0.0,0.0,81,0.00,,,0.00,Wunderground v.1.15,2013-02-09 23:17:00,
2013-02-09 15:22:00,43.9,38.4,30.34,SSE,157,0.0,0.0,81,0.00,,,0.00,Wunderground v.1.15,2013-02-09 23:22:00,
2013-02-09 15:27:00,44.0,38.5,30.34,SSE,157,0.0,0.0,81,0.00,,,0.00,Wunderground v.1.15,2013-02-09 23:27:00,
2013-02-09 15:32:00,44.0,38.5,30.34,SSE,157,0.0,0.0,81,0.00,,,0.00,Wunderground v.1.15,2013-02-09 23:32:00,
2013-02-09 15:37:00,44.1,38.6,30.34,SSE,157,0.0,0.0,81,0.00,,,0.00,Wunderground v.1.15,2013-02-09 23:37:00,
2013-02-09 15:42:00,44.2,38.7,30.34,SSE,157,0.0,0.0,81,0.00,,,0.00,Wunderground v.1.15,2013-02-09 23:42:00,
2013-02-09 15:47:00,44.1,38.6,30.34,SSE,157,0.0,0.0,81,0.00,,,0.00,Wunderground v.1.15,2013-02-09 23:47:00,
2013-02-09 15:52:00,44.1,38.6,30.34,SSE,157,0.0,0.0,81,0.00,,,0.00,Wunderground v.1.15,2013-02-09 23:52:00,
2013-02-09 15:58:00,44.0,38.5,30.35,SSE,157,0.0,0.0,81,0.00,,,0.00,Wunderground v.1.15,2013-02-09 23:58:00,
2013-02-09 16:03:00,43.8,38.3,30.35,SSE,157,0.0,0.0,81,0.00,,,0.00,Wunderground v.1.15,2013-02-10 00:03:00,
2013-02-09 16:08:00,43.7,38.3,30.35,SSE,157,0.0,0.0,81,0.00,,,0.00,Wunderground v.1.15,2013-02-10 00:08:00,
2013-02-09 16:13:00,43.7,38.6,30.35,SSE,157,0.0,0.0,82,0.00,,,0.00,Wunderground v.1.15,2013-02-10 00:13:00,
2013-02-09 16:18:00,43.7,38.6,30.35,SSE,157,0.0,0.0,82,0.00,,,0.00,Wunderground v.1.15,2013-02-10 00:18:00,
2013-02-09 16:23:00,43.7,38.9,30.35,SSE,157,0.0,1.0,83,0.00,,,0.00,Wunderground v.1.15,2013-02-10 00:23:00,
2013-02-09 16:28:00,43.5,39.0,30.35,SSE,157,0.0,4.0,84,0.00,,,0.00,Wunderground v.1.15,2013-02-10 00:28:00,
2013-02-09 16:33:00,43.3,39.1,30.35,SSE,157,0.0,1.0,85,0.00,,,0.00,Wunderground v.1.15,2013-02-10 00:33:00,
2013-02-09 16:38:00,43.2,39.0,30.35,SSE,157,0.0,1.0,85,0.00,,,0.00,Wunderground v.1.15,2013-02-10 00:38:00,
2013-02-09 16:43:00,43.0,39.1,30.35,SSE,157,0.0,0.0,86,0.00,,,0.00,Wunderground v.1.15,2013-02-10 00:43:00,
2013-02-09 16:48:00,42.9,39.3,30.35,SSE,157,0.0,0.0,87,0.00,,,0.00,Wunderground v.1.15,2013-02-10 00:48:00,
2013-02-09 16:53:00,42.8,39.2,30.35,SSE,157,0.0,0.0,87,0.00,,,0.00,Wunderground v.1.15,2013-02-10 00:53:00,
2013-02-09 16:58:00,42.7,39.1,30.36,SSE,157,0.0,0.0,87,0.00,,,0.00,Wunderground v.1.15,2013-02-10 00:58:00,
2013-02-09 17:03:00,42.7,39.4,30.36,SSE,157,0.0,0.0,88,0.00,,,0.00,Wunderground v.1.15,2013-02-10 01:03:00,
2013-02-09 17:08:00,42.7,39.4,30.36,SSE,157,0.0,0.0,88,0.00,,,0.00,Wunderground v.1.15,2013-02-10 01:08:00,
2013-02-09 17:13:00,42.6,39.3,30.36,SSE,157,0.0,0.0,88,0.00,,,0.00,Wunderground v.1.15,2013-02-10 01:13:00,
2013-02-09 17:18:00,42.6,39.3,30.36,SSE,157,0.0,0.0,88,0.00,,,0.00,Wunderground v.1.15,2013-02-10 01:18:00,
2013-02-09 17:23:00,42.5,39.2,30.36,SSE,157,0.0,0.0,88,0.00,,,0.00,Wunderground v.1.15,2013-02-10 01:23:00,
2013-02-09 17:28:00,42.5,39.5,30.36,SSE,157,0.0,0.0,89,0.00,,,0.00,Wunderground v.1.15,2013-02-10 01:28:00,
2013-02-09 17:34:00,42.4,39.4,30.36,SSE,157,0.0,0.0,89,0.00,,,0.00,Wunderground v.1.15,2013-02-10 01:34:00,
2013-02-09 17:39:00,42.4,39.4,30.37,SSE,157,0.0,0.0,89,0.00,,,0.00,Wunderground v.1.15,2013-02-10 01:39:00,
2013-02-09 17:44:00,42.3,39.3,30.36,SSE,157,0.0,0.0,89,0.00,,,0.00,Wunderground v.1.15,2013-02-10 01:44:00,
2013-02-09 17:49:00,42.3,39.3,30.36,SSE,157,0.0,0.0,89,0.00,,,0.00,Wunderground v.1.15,2013-02-10 01:49:00,
2013-02-09 17:54:00,42.2,39.2,30.36,SSE,157,0.0,0.0,89,0.00,,,0.00,Wunderground v.1.15,2013-02-10 01:54:00,
2013-02-09 17:59:00,42.2,39.2,30.36,SSE,157,0.0,0.0,89,0.00,,,0.00,Wunderground v.1.15,2013-02-10 01:59:00,
2013-02-09 18:04:00,42.2,39.5,30.36,SSE,157,0.0,0.0,90,0.00,,,0.00,Wunderground v.1.15,2013-02-10 02:04:00,
2013-02-09 18:09:00,42.1,39.4,30.37,SSE,157,0.0,0.0,90,0.00,,,0.00,Wunderground v.1.15,2013-02-10 02:09:00,
2013-02-09 18:14:00,42.1,39.4,30.37,SSE,157,0.0,0.0,90,0.00,,,0.00,Wunderground v.1.15,2013-02-10 02:14:00,
2013-02-09 18:19:00,42.0,39.3,30.37,SSE,157,0.0,0.0,90,0.00,,,0.00,Wunderground v.1.15,2013-02-10 02:19:00,
2013-02-09 18:24:00,42.0,39.3,30.37,SSE,157,0.0,0.0,90,0.00,,,0.00,Wunderground v.1.15,2013-02-10 02:24:00,
2013-02-09 18:29:00,42.0,39.3,30.37,SSE,157,0.0,0.0,90,0.00,,,0.00,Wunderground v.1.15,2013-02-10 02:29:00,
2013-02-09 18:34:00,42.0,39.3,30.36,SSE,157,0.0,0.0,90,0.00,,,0.00,Wunderground v.1.15,2013-02-10 02:34:00,
2013-02-09 18:39:00,41.9,39.2,30.37,SSE,157,0.0,0.0,90,0.00,,,0.00,Wunderground v.1.15,2013-02-10 02:39:00,
2013-02-09 18:44:00,41.9,39.2,30.36,SSE,157,0.0,0.0,90,0.00,,,0.00,Wunderground v.1.15,2013-02-10 02:44:00,
2013-02-09 18:49:00,41.9,39.2,30.36,SSE,157,0.0,0.0,90,0.00,,,0.00,Wunderground v.1.15,2013-02-10 02:49:00,
2013-02-09 18:54:00,41.9,39.5,30.37,SSE,157,0.0,0.0,91,0.00,,,0.00,Wunderground v.1.15,2013-02-10 02:54:00,
2013-02-09 18:59:00,41.9,39.5,30.36,SSE,157,0.0,0.0,91,0.00,,,0.00,Wunderground v.1.15,2013-02-10 02:59:00,
2013-02-09 19:04:00,41.9,39.5,30.36,SSE,157,0.0,0.0,91,0.00,,,0.00,Wunderground v.1.15,2013-02-10 03:04:00,
2013-02-09 19:09:00,41.9,39.5,30.37,SSE,157,0.0,0.0,91,0.00,,,0.00,Wunderground v.1.15,2013-02-10 03:09:00,
2013-02-09 19:14:00,41.9,39.5,30.37,SSE,157,0.0,0.0,91,0.00,,,0.00,Wunderground v.1.15,2013-02-10 03:14:00,
2013-02-09 19:19:00,41.9,39.5,30.36,SSE,157,0.0,0.0,91,0.00,,,0.00,Wunderground v.1.15,2013-02-10 03:19:00,
2013-02-09 19:24:00,42.0,39.6,30.36,SSE,157,0.0,0.0,91,0.00,,,0.00,Wunderground v.1.15,2013-02-10 03:24:00,
2013-02-09 19:29:00,42.0,39.6,30.37,SSE,157,0.0,0.0,91,0.00,,,0.00,Wunderground v.1.15,2013-02-10 03:29:00,
2013-02-09 19:34:00,42.0,39.6,30.36,SSE,157,0.0,0.0,91,0.00,,,0.00,Wunderground v.1.15,2013-02-10 03:34:00,
2013-02-09 19:39:00,42.0,39.6,30.36,SSE,157,0.0,0.0,91,0.00,,,0.00,Wunderground v.1.15,2013-02-10 03:39:00,
2013-02-09 19:44:00,42.0,39.8,30.36,SSE,157,0.0,0.0,92,0.00,,,0.00,Wunderground v.1.15,2013-02-10 03:44:00,
2013-02-09 19:49:00,42.0,39.8,30.36,SSE,157,0.0,0.0,92,0.00,,,0.00,Wunderground v.1.15,2013-02-10 03:49:00,
2013-02-09 19:54:00,42.0,39.8,30.36,SSE,157,0.0,0.0,92,0.00,,,0.00,Wunderground v.1.15,2013-02-10 03:54:00,
2013-02-09 19:59:00,41.9,39.7,30.36,SSE,157,0.0,0.0,92,0.00,,,0.00,Wunderground v.1.15,2013-02-10 03:59:00,
2013-02-09 20:04:00,41.9,39.7,30.37,SSE,157,0.0,0.0,92,0.00,,,0.00,Wunderground v.1.15,2013-02-10 04:04:00,
2013-02-09 20:09:00,41.9,39.7,30.36,SSE,157,0.0,0.0,92,0.00,,,0.00,Wunderground v.1.15,2013-02-10 04:09:00,
2013-02-09 20:14:00,41.9,39.7,30.37,SSE,157,0.0,0.0,92,0.00,,,0.00,Wunderground v.1.15,2013-02-10 04:14:00,
2013-02-09 20:19:00,41.9,39.7,30.37,SSE,157,0.0,0.0,92,0.00,,,0.00,Wunderground v.1.15,2013-02-10 04:19:00,
2013-02-09 20:25:00,41.8,39.6,30.37,SSE,157,0.0,0.0,92,0.00,,,0.00,Wunderground v.1.15,2013-02-10 04:25:00,
2013-02-09 20:30:00,41.8,39.6,30.37,SSE,157,0.0,0.0,92,0.00,,,0.00,Wunderground v.1.15,2013-02-10 04:30:00,
2013-02-09 20:35:00,41.8,39.6,30.37,SSE,157,0.0,0.0,92,0.00,,,0.00,Wunderground v.1.15,2013-02-10 04:35:00,
2013-02-09 20:40:00,41.8,39.6,30.38,SSE,157,0.0,0.0,92,0.00,,,0.00,Wunderground v.1.15,2013-02-10 04:40:00,
2013-02-09 20:45:00,41.8,39.6,30.38,SSE,157,0.0,0.0,92,0.00,,,0.00,Wunderground v.1.15,2013-02-10 04:45:00,
2013-02-09 20:50:00,41.8,39.6,30.38,SSE,157,0.0,0.0,92,0.00,,,0.00,Wunderground v.1.15,2013-02-10 04:50:00,
2013-02-09 20:55:00,41.8,39.6,30.38,SSE,157,0.0,0.0,92,0.00,,,0.00,Wunderground v.1.15,2013-02-10 04:55:00,
2013-02-09 21:00:00,41.8,39.6,30.38,SSE,157,0.0,0.0,92,0.00,,,0.00,Wunderground v.1.15,2013-02-10 05:00:00,
2013-02-09 21:01:00,41.8,39.6,30.37,SSE,157,0.0,0.0,92,0.00,,,0.00,Wunderground v.1.15,2013-02-10 05:01:00,
2013-02-09 21:06:00,41.8,39.6,30.37,SSE,157,0.0,0.0,92,0.00,,,0.00,Wunderground v.1.15,2013-02-10 05:06:00,
2013-02-09 21:11:00,41.8,39.6,30.38,SSE,157,0.0,1.0,92,0.00,,,0.00,Wunderground v.1.15,2013-02-10 05:11:00,
2013-02-09 21:16:00,41.8,39.6,30.38,SSE,157,0.0,2.0,92,0.00,,,0.00,Wunderground v.1.15,2013-02-10 05:16:00,
2013-02-09 21:21:00,41.8,39.6,30.38,SSE,158,0.0,2.0,92,0.00,,,0.00,Wunderground v.1.15,2013-02-10 05:21:00,
2013-02-09 21:26:00,41.8,39.6,30.38,SSE,158,1.0,3.0,92,0.00,,,0.00,Wunderground v.1.15,2013-02-10 05:26:00,
2013-02-09 21:31:00,41.7,39.5,30.38,SSE,159,0.0,1.0,92,0.00,,,0.00,Wunderground v.1.15,2013-02-10 05:31:00,
2013-02-09 21:36:00,41.7,39.5,30.38,SSE,160,0.0,3.0,92,0.00,,,0.00,Wunderground v.1.15,2013-02-10 05:36:00,
2013-02-09 21:41:00,41.7,39.5,30.38,SSE,160,0.0,1.0,92,0.00,,,0.00,Wunderground v.1.15,2013-02-10 05:41:00,
2013-02-09 21:46:00,41.6,39.4,30.38,SSE,160,0.0,1.0,92,0.00,,,0.00,Wunderground v.1.15,2013-02-10 05:46:00,
2013-02-09 21:51:00,41.6,39.4,30.38,SSE,160,0.0,3.0,92,0.00,,,0.00,Wunderground v.1.15,2013-02-10 05:51:00,
2013-02-09 21:56:00,41.6,39.7,30.38,SSE,160,1.0,3.0,93,0.00,,,0.00,Wunderground v.1.15,2013-02-10 05:56:00,
2013-02-09 22:01:00,41.6,39.7,30.38,SSE,160,1.0,1.0,93,0.00,,,0.00,Wunderground v.1.15,2013-02-10 06:01:00,
2013-02-09 22:06:00,41.5,39.6,30.39,SSE,160,0.0,2.0,93,0.00,,,0.00,Wunderground v.1.15,2013-02-10 06:06:00,
2013-02-09 22:11:00,41.5,39.6,30.39,SSE,160,0.0,1.0,93,0.00,,,0.00,Wunderground v.1.15,2013-02-10 06:11:00,
2013-02-09 22:17:00,41.5,39.6,30.39,SSE,160,0.0,1.0,93,0.00,,,0.00,Wunderground v.1.15,2013-02-10 06:17:00,
2013-02-09 22:22:00,41.6,39.7,30.39,SSE,160,0.0,2.0,93,0.00,,,0.00,Wunderground v.1.15,2013-02-10 06:22:00,
2013-02-09 22:27:00,41.6,39.7,30.40,SSE,159,0.0,3.0,93,0.00,,,0.00,Wunderground v.1.15,2013-02-10 06:27:00,
2013-02-09 22:32:00,41.6,39.7,30.39,SSE,159,0.0,2.0,93,0.00,,,0.00,Wunderground v.1.15,2013-02-10 06:32:00,
2013-02-09 22:37:00,41.6,39.7,30.39,SSE,159,0.0,2.0,93,0.00,,,0.00,Wunderground v.1.15,2013-02-10 06:37:00,
2013-02-09 22:42:00,41.6,39.7,30.40,SSE,159,0.0,0.0,93,0.00,,,0.00,Wunderground v.1.15,2013-02-10 06:42:00,
2013-02-09 22:47:00,41.6,39.7,30.40,SSE,159,0.0,1.0,93,0.00,,,0.00,Wunderground v.1.15,2013-02-10 06:47:00,
2013-02-09 22:52:00,41.5,39.6,30.40,SSE,159,0.0,0.0,93,0.00,,,0.00,Wunderground v.1.15,2013-02-10 06:52:00,
2013-02-09 22:57:00,41.5,39.6,30.40,SSE,159,0.0,0.0,93,0.00,,,0.00,Wunderground v.1.15,2013-02-10 06:57:00,
2013-02-09 23:02:00,41.5,39.6,30.40,SSE,159,0.0,0.0,93,0.00,,,0.00,Wunderground v.1.15,2013-02-10 07:02:00,
2013-02-09 23:07:00,41.6,39.7,30.40,SSE,159,0.0,1.0,93,0.00,,,0.00,Wunderground v.1.15,2013-02-10 07:07:00,
2013-02-09 23:12:00,41.6,39.7,30.40,SSE,159,0.0,0.0,93,0.00,,,0.00,Wunderground v.1.15,2013-02-10 07:12:00,
2013-02-09 23:17:00,41.6,39.7,30.40,SSE,157,0.0,4.0,93,0.00,,,0.00,Wunderground v.1.15,2013-02-10 07:17:00,
2013-02-09 23:22:00,41.6,39.4,30.40,SSE,157,3.0,3.0,92,0.00,,,0.00,Wunderground v.1.15,2013-02-10 07:22:00,
2013-02-09 23:27:00,41.6,39.4,30.40,SSE,157,0.0,3.0,92,0.00,,,0.00,Wunderground v.1.15,2013-02-10 07:27:00,
2013-02-09 23:32:00,41.6,39.4,30.40,SSE,157,0.0,0.0,92,0.00,,,0.00,Wunderground v.1.15,2013-02-10 07:32:00,
2013-02-09 23:37:00,41.6,39.4,30.40,SSE,157,0.0,0.0,92,0.00,,,0.00,Wunderground v.1.15,2013-02-10 07:37:00,
2013-02-09 23:43:00,41.6,39.4,30.40,SSE,157,0.0,0.0,92,0.00,,,0.00,Wunderground v.1.15,2013-02-10 07:43:00,
2013-02-09 23:48:00,41.6,39.4,30.40,SSE,157,0.0,0.0,92,0.00,,,0.00,Wunderground v.1.15,2013-02-10 07:48:00,
2013-02-09 23:53:00,41.6,39.4,30.40,SSE,157,0.0,0.0,92,0.00,,,0.00,Wunderground v.1.15,2013-02-10 07:53:00,
2013-02-09 23:58:00,41.6,39.4,30.40,SSE,157,0.0,0.0,92,0.00,,,0.00,Wunderground v.1.15,2013-02-10 07:58:00,